Location: Presov
(49.0000°N, 21.2500°E)
Time: 10:31:21
(UTC+02:00)

A-11 Canister half - Pass Details

Date: 23 April 2021
Orbit: 1526 x 1683 km, 47.3° (Epoch: 11 May)

Event Time Altitude Azimuth Distance (km) Brightness Sun altitude
Rises 22:33:03 0° 289° (WNW) 4,941 12.4 -22.7°
Reaches altitude 10° 22:37:17 10° 275° (W) 3,946 11.6 -23.1°
Maximum altitude 22:44:01 21° 232° (SW) 3,155 10.5 -23.6°
Enters shadow 22:48:07 16° 203° (SSW) 3,443 10.5 -24.0°
